This is the latest recevied weather packets stored in our database for station/object SV9TNF-2. If no packets are shown the sender has not sent any weather packets the latest 10 day(s).
| Time | Temp. | Humidity | Pressure | Rain* | Wind** | Luminosity | Snow |
|---|---|---|---|---|---|---|---|
| 1777435155 | 12.22° C | 65% | 1022.7 hPa | 0 mm | 8.49 m/s, 174° | - | - |
| 1777434855 | 11.67° C | 67% | 1022.7 hPa | 0 mm | 4.92 m/s, 205° | - | - |
| 1777434555 | 11.11° C | 68% | 1022.7 hPa | 0 mm | 6.71 m/s, 182° | - | - |
| 1777434255 | 11.11° C | 69% | 1022.7 hPa | 0 mm | 4.92 m/s, 163° | - | - |
| 1777433955 | 11.11° C | 68% | 1022.7 hPa | 0 mm | 6.71 m/s, 59° | - | - |
| 1777433654 | 11.67° C | 68% | 1022.7 hPa | 0 mm | 3.13 m/s, 210° | - | - |
| 1777433355 | 11.11° C | 68% | 1022.7 hPa | 0 mm | 3.58 m/s, 225° | - | - |
| 1777433055 | 11.11° C | 69% | 1022.7 hPa | 0 mm | 6.71 m/s, 208° | - | - |
| 1777432754 | 10.56° C | 69% | 1022.7 hPa | 0 mm | 9.83 m/s, 177° | - | - |
| 1777432454 | 10.56° C | 69% | 1022.7 hPa | 0 mm | 5.36 m/s, 174° | - | - |
| 1777432154 | 11.11° C | 68% | 1022.7 hPa | 0 mm | 7.6 m/s, 193° | - | - |
| 1777431854 | 11.67° C | 67% | 1022.7 hPa | 0 mm | 4.92 m/s, 188° | - | - |
| 1777431554 | 12.22° C | 66% | 1022.7 hPa | 0 mm | 2.68 m/s, 259° | - | - |
| 1777431254 | 11.67° C | 67% | 1022.7 hPa | 0 mm | 4.47 m/s, 178° | - | - |
| 1777430954 | 11.67° C | 67% | 1022.7 hPa | 0 mm | 4.02 m/s, 170° | - | - |
| 1777430654 | 11.67° C | 67% | 1022.7 hPa | 0 mm | 4.92 m/s, 271° | - | - |
| 1777430354 | 11.67° C | 66% | 1022.7 hPa | 0 mm | 4.92 m/s, 238° | - | - |
| 1777430054 | 11.67° C | 66% | 1022.7 hPa | 0 mm | 3.58 m/s, 253° | - | - |
| 1777429753 | 11.67° C | 66% | 1022.7 hPa | 0 mm | 4.47 m/s, 257° | - | - |
| 1777429453 | 12.22° C | 64% | 1022.7 hPa | 0 mm | 5.81 m/s, 239° | - | - |
| 1777429153 | 12.78° C | 63% | 1022.7 hPa | 0 mm | 4.47 m/s, 213° | - | - |
| 1777428853 | 12.22° C | 63% | 1022.7 hPa | 0 mm | 5.81 m/s, 120° | - | - |
| 1777428553 | 12.78° C | 61% | 1022.7 hPa | 0 mm | 5.81 m/s, 270° | - | - |
| 1777428253 | 12.22° C | 62% | 1022.7 hPa | 0 mm | 6.71 m/s, 241° | - | - |
| 1777427953 | 11.67° C | 64% | 1022.7 hPa | 0 mm | 5.81 m/s, 243° | - | - |
* Rain latest hour (hover to see other rain measurements)
** Current wind speed in m/s (hover to see current wind gust speed)